GEESAT 3-07

导读

GEESAT 3-07是中国于2024年9月5日发射的吉利星座低轨卫星,隶属于吉利科技集团GEESAT星座系统,作为中国商业航天成果,该卫星是吉利完成一期组网后的卫星补充,参与构建全球低轨卫星互联网与高精度时空服务体系。卫星可面向全球提供高稳定卫星物联通信服务,也可支撑星基高精定位能力,服务智慧出行、应急通信等多元领域,助力中国低轨商业星座生态建设。

基本信息
目录编号:
61017
目录名称:
GEESAT 3-07
国际标识:
2024-159G
轨道中心:
EARTH
卫星名称:
GEESAT 3-07
卫星全名:
GEESAT 3-07
卫星状态:
在轨 (已飞行736 天)
发射日期:
2024-09-05 UTC
国别 :
中国 (CN)
星等 :
--
该卫星已列入 空间交会检测服务 Space Conjunction Data Service (SCDS) ,当前飞行风险评估等级: 高风险
轨道信息
数据来源 国际轨道数据 AOE轨道数据
星历时间 2026-09-11T14:33:45+0800
8小时前
查看轨道信息
2026-09-07T01:00:00+0800
4天前
查看轨道信息
半长轴 6993.343km 6993.388km
偏心率 0.0010784 0.001092
轨道倾角 49.995° 49.993°
近地点辐角 4.109° 347.746°
升交点赤经 43.532° 64.718°
平近点角 355.994° 78.343°
近地点 607.664km 607.614km
远地点 622.748km 622.888km
周期 97.003分钟 97.004分钟
每日圈数 14.844843 14.844699
详细信息
使用方式:
暂无
2D轨道图
3D轨道图
轨道高度分析图
轨道倾角分析图
轨道综合分析图
查看轨道综合分析图
与全量物体交会距离演化趋势
与全量物体交会风险概率演化趋势